Weather History for Drummond Island, MI

Change the Weather History Date:

Sunday, July 7, 2013

  Actual Average (KCIU) Record (KCIU)
Temperature  
Mean Temperature 68 °F -  
Max Temperature 79 °F 77 °F 90 °F (1988)
Min Temperature 58 °F 49 °F 41 °F (1997)
Cooling Degree Days 4    
Growing Degree Days 18 (Base 50)    
Moisture  
Dew Point 64 °F    
Average Humidity 84    
Maximum Humidity 100    
Minimum Humidity 61    
Precipitation  
Precipitation 0.00 in - - ()
Sea Level Pressure  
Sea Level Pressure 29.95 in    
Wind  
Wind Speed 2 mph (SSW)    
Max Wind Speed 9 mph    
Max Gust Speed -    
Visibility 7 miles    
Events Rain    
Averages and records for this station are not official NWS values.
T = Trace of Precipitation, MM = Missing Value Source: NWS Daily Summary

Daily Weather History Graph

Daily Weather History Graph

Search for Another Location

Airport:

Trip Planner

Search our weather history database for the weather conditions in past years. The results will help you decide how hot, cold, wet, or windy it might be!

Date:

Astronomy

Jul. 07, 2013 Rise Set
Actual Time 5:52 AM EDT 9:27 PM EDT
Civil Twilight 5:14 AM EDT 10:04 PM EDT
Nautical Twilight 4:24 AM EDT 10:55 PM EDT
Astronomical Twilight 3:16 AM EDT 12:01 AM EDT
Moon 5:31 AM EDT (7/7) 8:45 PM EDT (7/7)
Length of Visible Light 16h 50m
Length of Day
15h 34m
Waning Crescent, 0% of the Moon is Illuminated
Jul 7
Waning Crescent
Jul 8
New
Jul 15
First Quarter
Jul 22
Full
Jul 29
Last Quarter

Hourly Weather History & Observations

Time (EDT) Temp. Dew Point Humidity Pressure Visibility Wind Dir Wind Speed Gust Speed Precip Events Conditions
12:16 AM 64.8 °F 63.9 °F 97% 29.99 in 5.0 mi Calm Calm - N/A   Clear
12:36 AM 64.8 °F 64.2 °F 98% 29.98 in 5.0 mi Calm Calm - N/A   Clear
12:56 AM 65.8 °F 64.6 °F 96% 29.98 in 5.0 mi SSE 3.5 mph - N/A   Clear
1:16 AM 65.3 °F 64.2 °F 96% 29.98 in 5.0 mi Calm Calm - N/A   Clear
1:36 AM 65.1 °F 64.4 °F 98% 29.97 in 5.0 mi SSE 4.6 mph - N/A   Clear
1:56 AM 64.8 °F 64.4 °F 99% 29.97 in 5.0 mi South 3.5 mph - N/A   Clear
2:16 AM 64.2 °F 64.0 °F 99% 29.97 in 4.0 mi Calm Calm - N/A   Clear
2:36 AM 63.5 °F 63.5 °F 100% 29.96 in 3.0 mi Calm Calm - N/A   Clear
2:55 AM 63.9 °F 63.9 °F 100% 29.97 in 3.0 mi Calm Calm - N/A   Clear
3:16 AM 63.0 °F 63.0 °F 100% 29.96 in 2.0 mi Calm Calm - N/A   Clear
3:36 AM 62.1 °F 62.1 °F 100% 29.96 in 0.8 mi Calm Calm - N/A   Mist
3:56 AM 61.0 °F 61.0 °F 100% 29.96 in 2.0 mi Calm Calm - N/A   Mist
4:16 AM 60.6 °F 60.6 °F 100% 29.96 in 2.0 mi Calm Calm - N/A   Mist
4:36 AM 60.8 °F 60.8 °F 100% 29.96 in 1.5 mi Calm Calm - N/A   Mist
4:56 AM 59.4 °F 59.4 °F 100% 29.95 in 2.0 mi Calm Calm - N/A   Mist
5:16 AM 58.6 °F 58.6 °F 100% 29.96 in 1.0 mi Calm Calm - N/A   Mist
5:36 AM 58.6 °F 58.6 °F 100% 29.95 in 0.8 mi Calm Calm - N/A   Mist
5:56 AM 58.5 °F 58.5 °F 100% 29.95 in 1.8 mi Calm Calm - N/A   Mist
6:16 AM 58.1 °F 58.1 °F 100% 29.96 in 1.8 mi Calm Calm - N/A   Mist
6:36 AM 58.6 °F 58.6 °F 100% 29.96 in 2.0 mi Calm Calm - N/A   Clear
6:56 AM 59.2 °F 59.2 °F 100% 29.96 in 2.0 mi Calm Calm - N/A   Clear
7:16 AM 61.0 °F 61.0 °F 100% 29.96 in 5.0 mi Calm Calm - N/A   Clear
7:36 AM 64.0 °F 64.0 °F 100% 29.96 in 7.0 mi Calm Calm - N/A   Clear
7:56 AM 67.5 °F 64.6 °F 90% 29.96 in 10.0 mi Calm Calm - N/A   Clear
8:16 AM 71.2 °F 63.5 °F 76% 29.96 in 10.0 mi SW 3.5 mph - N/A   Clear
8:36 AM 72.5 °F 63.1 °F 72% 29.96 in 10.0 mi SW 3.5 mph - N/A   Clear
8:56 AM 74.5 °F 63.3 °F 68% 29.95 in 10.0 mi SSW 5.8 mph - N/A   Clear
9:15 AM 75.2 °F 63.0 °F 66% 29.96 in 10.0 mi WSW 4.6 mph - N/A   Clear
9:36 AM 74.7 °F 63.9 °F 69% 29.96 in 10.0 mi SSW 5.8 mph - N/A   Scattered Clouds
9:56 AM 75.0 °F 63.7 °F 68% 29.95 in 10.0 mi SSW 5.8 mph - N/A   Scattered Clouds
10:16 AM 76.1 °F 64.2 °F 67% 29.95 in 10.0 mi SSW 6.9 mph - N/A   Scattered Clouds
10:36 AM 77.0 °F 64.6 °F 65% 29.95 in 10.0 mi SW 4.6 mph - N/A   Scattered Clouds
10:56 AM 76.1 °F 64.6 °F 67% 29.95 in 10.0 mi SSW 6.9 mph - N/A   Clear
11:16 AM 77.5 °F 65.1 °F 65% 29.95 in 10.0 mi SW 6.9 mph - N/A   Scattered Clouds
11:36 AM 77.5 °F 65.7 °F 67% 29.95 in 10.0 mi SW 5.8 mph - N/A   Scattered Clouds
11:56 AM 76.8 °F 64.8 °F 66% 29.95 in 10.0 mi SW 6.9 mph - N/A   Clear
12:16 PM 75.6 °F 65.3 °F 70% 29.94 in 10.0 mi SSW 9.2 mph - N/A   Clear
12:36 PM 75.4 °F 64.9 °F 70% 29.94 in 10.0 mi WSW 8.1 mph - N/A   Clear
12:56 PM 76.3 °F 65.3 °F 69% 29.94 in 10.0 mi SSW 9.2 mph - N/A   Clear
1:16 PM 76.1 °F 65.7 °F 70% 29.93 in 10.0 mi SSW 8.1 mph - N/A   Clear
1:36 PM 77.4 °F 66.0 °F 68% 29.93 in 10.0 mi South 9.2 mph - N/A   Clear
1:56 PM 77.0 °F 65.7 °F 68% 29.93 in 10.0 mi SW 4.6 mph - N/A   Clear
2:16 PM 79.0 °F 66.9 °F 66% 29.93 in 10.0 mi South 8.1 mph - N/A   Clear
2:36 PM 79.0 °F 66.4 °F 65% 29.93 in 10.0 mi SSW 8.1 mph - N/A   Clear
2:56 PM 78.1 °F 66.2 °F 67% 29.93 in 10.0 mi SSW 8.1 mph - N/A   Scattered Clouds
3:16 PM 76.3 °F 65.7 °F 70% 29.93 in 10.0 mi SSW 6.9 mph - N/A   Mostly Cloudy
3:36 PM 76.8 °F 66.0 °F 69% 29.92 in 10.0 mi SSW 6.9 mph - N/A   Scattered Clouds
3:56 PM 74.5 °F 65.7 °F 74% 29.93 in 10.0 mi South 4.6 mph - N/A   Overcast
4:15 PM 74.3 °F 65.8 °F 75% 29.93 in 10.0 mi South 3.5 mph - N/A   Overcast
4:36 PM 73.0 °F 66.2 °F 79% 29.94 in 10.0 mi NNW 9.2 mph - N/A   Overcast
4:56 PM 71.6 °F 64.9 °F 79% 29.93 in 10.0 mi Calm Calm - N/A   Mostly Cloudy
5:16 PM 73.6 °F 64.8 °F 74% 29.93 in 10.0 mi Calm Calm - N/A   Overcast
5:36 PM 76.8 °F 64.4 °F 65% 29.93 in 10.0 mi Calm Calm - N/A   Mostly Cloudy
5:56 PM 77.2 °F 62.8 °F 61% 29.92 in 10.0 mi WNW 3.5 mph - N/A   Mostly Cloudy
6:16 PM 76.3 °F 64.2 °F 66% 29.92 in 10.0 mi Calm Calm - N/A   Overcast
6:36 PM 75.0 °F 63.7 °F 68% 29.93 in 10.0 mi Calm Calm - N/A   Overcast
6:56 PM 74.5 °F 63.5 °F 68% 29.93 in 10.0 mi Calm Calm - N/A   Overcast
7:16 PM 72.0 °F 64.8 °F 78% 29.93 in 10.0 mi Calm Calm - N/A Rain Rain
7:36 PM 70.5 °F 66.6 °F 87% 29.93 in 10.0 mi Calm Calm - N/A Rain Light Rain
7:56 PM 70.0 °F 67.3 °F 91% 29.93 in 10.0 mi Calm Calm - N/A   Overcast
8:16 PM 70.2 °F 68.2 °F 93% 29.93 in 10.0 mi Calm Calm - N/A   Overcast
8:36 PM 70.2 °F 68.0 °F 93% 29.94 in 10.0 mi Calm Calm - N/A   Overcast
8:56 PM 70.0 °F 67.8 °F 93% 29.94 in 7.0 mi Calm Calm - N/A   Overcast
9:16 PM 69.8 °F 68.0 °F 94% 29.94 in 7.0 mi Calm Calm - N/A   Overcast
9:36 PM 69.1 °F 68.0 °F 96% 29.95 in 5.0 mi SSW 3.5 mph - N/A   Overcast
9:56 PM 68.4 °F 66.4 °F 93% 29.95 in 7.0 mi South 3.5 mph - N/A   Scattered Clouds
10:16 PM 67.3 °F 65.7 °F 95% 29.95 in 7.0 mi Calm Calm - N/A   Clear
10:36 PM 66.6 °F 65.5 °F 96% 29.95 in 7.0 mi Calm Calm - N/A   Clear
10:56 PM 65.7 °F 65.1 °F 98% 29.95 in 7.0 mi Calm Calm - N/A   Clear
11:16 PM 65.5 °F 65.3 °F 99% 29.96 in 7.0 mi Calm Calm - N/A   Scattered Clouds
11:36 PM 66.9 °F 65.8 °F 96% 29.96 in 7.0 mi Calm Calm - N/A   Mostly Cloudy
11:56 PM 67.8 °F 66.6 °F 96% 29.96 in 7.0 mi Calm Calm - N/A   Overcast